Home > Weather > Hat Yai > Past weeks

Flag for Thailand Weather for the Past 2 Weeks in Hat Yai, Thailand

Now
79 °F

Passing clouds.


Feels Like: 83 °F
Forecast: 79 / 94 °F
Wind: 2 mph from Southwest

Location: Hat Yai Airport

Current Time: May 7, 2016 at 5:37:57 AM

Latest Report: May 7, 2016 at 5:00 AM


Visibility: N/A

Pressure: 29.71 "Hg

Humidity: 100%

Dew Point: 79 °F

Location of Hat YaiLocation

Historic Weather in Hat Yai — Graph

°F

Hat Yai Temperature Yesterday

Maximum temperature yesterday: 97 °F (at 12:00 PM)
Minimum temperature yesterday: 77 °F (at 3:00 AM)
Average temperature yesterday: 86 °F

High & Low Weather Summary for the Past Weeks

 TemperatureHumidityPressure
High102 °F (Apr 28, 2:30 PM)100% (Apr 23, 5:00 AM)29.86 "Hg (Apr 23, 5:00 AM)
Low45 °F (May 3, 7:30 AM)33% (Apr 26, 3:00 PM)29.65 "Hg (Apr 24, 3:30 PM)
Average86 °F74%29.78 "Hg
* Reported Apr 22 4:00 AM — May 7 4:30 AM, Hat Yai, Weather by CustomWeather, © 2016

Note: Actual official high and low records may vary slightly from our data, if they occured in-between our weather recording intervals... More about our weather records

Advertising

Hat Yai Weather History for the Previous 24 Hours

Scroll right to see more
 ConditionsComfort  
Time TempWeatherWind HumidityBarometerVisibility
4:30 AM
Sat, May 7
79 °FPassing clouds.No wind94%29.71 "HgN/A
4:00 AM79 °FPassing clouds.2 mph94%29.71 "HgN/A
3:30 AM81 °FPassing clouds.No wind94%29.68 "HgN/A
3:00 AM81 °FPassing clouds.3 mph94%29.71 "HgN/A
2:30 AM81 °FPassing clouds.No wind94%29.71 "HgN/A
2:00 AM81 °FPassing clouds.No wind94%29.71 "HgN/A
1:30 AM81 °FPassing clouds.3 mph94%29.74 "Hg6 mi
1:00 AM82 °FPassing clouds.3 mph89%29.74 "Hg6 mi
12:30 AM82 °FPassing clouds.3 mph89%29.77 "Hg5 mi
12:00 AM82 °FPassing clouds.5 mph89%29.77 "Hg5 mi
11:30 PM
Fri, May 6
84 °FPassing clouds.No wind84%29.80 "HgN/A
11:00 PM84 °FPassing clouds.2 mph84%29.80 "HgN/A
10:30 PM86 °FPassing clouds.2 mph79%29.80 "HgN/A
10:00 PM86 °FPassing clouds.5 mph79%29.80 "HgN/A
9:30 PM86 °FPassing clouds.No wind79%29.80 "HgN/A
9:00 PM86 °FPassing clouds.6 mph79%29.77 "HgN/A
8:30 PM86 °FPassing clouds.7 mph79%29.74 "HgN/A
8:00 PM86 °FPassing clouds.7 mph79%29.74 "HgN/A
7:30 PM86 °FPassing clouds.8 mph79%29.74 "HgN/A
7:00 PM88 °FPassing clouds.7 mph70%29.71 "HgN/A
6:30 PM88 °FPassing clouds.9 mph70%29.68 "HgN/A
6:00 PM90 °FScattered clouds.12 mph63%29.68 "HgN/A
5:30 PM93 °FScattered clouds.13 mph53%29.65 "HgN/A
5:00 PM93 °FScattered clouds.10 mph53%29.65 "HgN/A
4:30 PM93 °FScattered clouds.10 mph56%29.65 "HgN/A
4:00 PM93 °FScattered clouds.13 mph53%29.65 "HgN/A
3:30 PM95 °FScattered clouds.14 mph50%29.68 "HgN/A
3:00 PM97 °FScattered clouds.13 mph47%29.68 "HgN/A
2:30 PM97 °FScattered clouds.10 mph47%29.68 "HgN/A
2:00 PM95 °FScattered clouds.10 mph50%29.71 "HgN/A
1:30 PM97 °FScattered clouds.9 mph47%29.74 "HgN/A
1:00 PM97 °FScattered clouds.7 mph50%29.74 "HgN/A
12:30 PM97 °FScattered clouds.9 mph50%29.77 "HgN/A
12:00 PM97 °FScattered clouds.5 mph50%29.80 "HgN/A
11:30 AM95 °FScattered clouds.7 mph53%29.80 "HgN/A
11:00 AM95 °FPassing clouds.5 mph53%29.80 "HgN/A
10:30 AM93 °FPassing clouds.5 mph59%29.83 "HgN/A
10:00 AM90 °FPassing clouds.5 mph67%29.83 "HgN/A
9:30 AM88 °FPassing clouds.3 mph70%29.83 "HgN/A
9:00 AM86 °FPassing clouds.2 mph79%29.83 "HgN/A
8:30 AM84 °FPassing clouds.2 mph84%29.83 "HgN/A
8:00 AM82 °FPassing clouds.2 mph89%29.80 "HgN/A
7:30 AM81 °FPassing clouds.2 mph89%29.80 "HgN/A
7:00 AM79 °FPassing clouds.3 mph94%29.80 "HgN/A
6:30 AM77 °FPassing clouds.3 mph100%29.80 "Hg4 mi
6:00 AM77 °FPassing clouds.2 mph94%29.80 "Hg4 mi
5:30 AM77 °FPassing clouds.3 mph100%29.77 "Hg5 mi
5:00 AM77 °FPassing clouds.2 mph100%29.77 "HgN/A
Weather by CustomWeather, © 2016

See weather overviewHow to use our weather pages